Orbital Elements at Epoch 2459000.5 (2020-May-31.0) TDB
Reference: JPL 37 (heliocentric ecliptic J2000)
Element | Value | Uncertainty (1-sigma) | Units |
e | .1294385569030231 | 4.0485e-08 | |
a | 2.722907193563572 | 1.2949e-08 | au |
q | 2.370458015847842 | 1.1563e-07 | au |
i | 18.4467759402097 | 3.9567e-06 | deg |
node | 182.4607614655912 | 1.1215e-05 | deg |
peri | 352.5568455046384 | 1.8104e-05 | deg |
M | 321.5606863182321 | 1.4312e-05 | deg |
tp | 2459175.734982661048 (2020-Nov-22.23498266) | 6.5562e-05 | TDB |
period | 1641.147765546576 4.49 | 1.1707e-05 3.205e-08 | d yr |
n | .219358675408551 | 1.5648e-09 | deg/d |
Q | 3.0753563712793 | 1.4625e-08 | au |
|
| | Orbit Determination Parameters
Additional Information
|